Wind_Speed
11 11 11 10 10 10 10 9 9 9 9 8 8 8 8 7 7 7 8 8 8 9 10 10 11 12 12 12 13 14 15 15 15 16 16 17 17 18
13 12 12 13 12 12 12 12 11 11 11 10 10 10 10 10 10 10 10 10 10 11 12 13 13 14 14 14 15 16 16 17 17 18 19 19 20 20
14 14 14 14 14 14 14 14 13 13 12 12 12 12 12 12 12 12 12 13 13 14 15 15 16 16 17 17 18 19 19 20 20 21 21 21 22 22
15 15 15 16 16 15 15 14 14 14 14 14 14 14 14 14 14 14 15 15 16 16 17 18 18 19 20 20 21 22 22 23 23 24 24 25 25 25
16 16 16 17 17 17 16 15 16 16 15 15 15 16 16 17 18 18 18 18 18 19 19 20 21 22 23 23 24 25 25 26 27 27 27 27 28 28
18 18 18 18 18 17 17 17 17 17 17 18 18 18 19 20 21 21 21 21 22 22 22 23 23 24 25 26 27 27 28 29 29 30 30 30 31 31
20 20 20 19 19 19 19 19 19 19 19 20 21 21 22 23 23 23 24 24 25 26 26 26 27 27 27 28 29 30 31 32 32 33 33 33 34 34
22 21 21 20 21 21 21 21 22 22 22 23 23 24 25 25 26 26 27 27 28 29 29 29 29 30 30 31 32 33 34 35 35 36 36 36 37 38
21 21 21 22 22 23 23 23 24 25 25 25 26 27 27 28 29 30 31 31 31 32 32 32 33 33 34 34 35 36 37 37 37 38 39 39 40 40
20 21 22 22 23 24 24 25 25 26 27 28 29 29 30 31 31 31 33 34 34 35 36 36 37 37 37 38 39 40 40 40 40 41 41 42 42 42
21 21 22 23 23 24 25 26 27 27 29 30 31 32 32 32 33 33 34 35 36 36 38 39 39 39 39 40 40 41 42 42 42 42 43 43 44 44
21 21 22 22 23 24 25 26 27 28 30 32 33 33 34 35 36 36 37 37 38 38 40 41 41 41 41 41 42 43 43 43 44 44 44 45 45 46
21 22 23 23 24 25 26 27 28 30 31 32 33 35 36 36 37 38 38 38 39 39 40 41 41 42 42 41 42 43 44 44 45 45 46 46 47 48
22 23 24 25 26 27 28 29 30 32 33 34 35 36 37 37 38 38 39 40 41 41 42 44 45 45 44 44 44 44 44 45 45 46 47 47 48 48
23 25 26 27 28 29 30 31 33 34 34 35 35 37 38 39 39 39 40 42 43 44 45 46 46 46 45 45 44 44 45 45 47 48 48 48 48 49
25 26 27 28 29 29 30 32 33 33 34 36 36 37 38 38 39 40 41 43 44 43 44 44 45 46 46 46 47 47 48 48 49 49 49 49 50 50
27 28 28 30 31 31 31 33 34 34 36 37 38 38 39 40 41 41 42 43 43 43 43 44 45 47 48 49 49 49 50 50 51 51 51 51 51 51
28 28 29 30 31 32 32 34 35 36 37 38 39 40 41 41 42 43 43 43 44 45 45 46 47 48 49 49 50 51 51 51 51 51 51 51 50 51
30 30 31 31 32 33 34 35 37 38 40 40 41 42 42 42 42 43 44 45 46 46 46 47 48 49 49 48 48 50 50 50 51 50 50 51 51 51
31 32 33 34 35 36 37 37 39 40 40 41 41 42 42 43 43 44 45 45 46 46 46 47 47 48 49 49 48 48 49 49 50 50 50 50 49 49
32 33 34 35 36 37 38 39 40 40 41 41 42 43 43 44 44 44 44 45 46 46 46 46 47 48 48 48 48 47 48 48 48 47 47 47 47 46
32 34 35 37 37 38 38 39 39 40 40 41 42 43 43 43 43 43 44 44 44 45 46 46 46 47 47 47 47 47 47 46 46 46 47 47 46 45
34 35 36 37 38 38 38 38 39 40 41 41 42 43 43 43 43 44 44 45 44 44 45 45 45 45 46 45 45 45 45 44 45 45 45 45 44 43
Wind_Direction
256 255 254 257 257 258 259 262 264 268 268 272 273 274 274 274 278 281 284 290 296 301 304 305 305 306 306 305 304 305 306 306 306 308 308 308 308 307
255 255 255 258 259 260 262 263 266 269 267 270 273 274 272 272 276 279 282 287 290 294 297 299 300 302 302 300 300 301 302 302 302 303 304 304 304 303
253 255 256 258 260 259 261 262 265 266 267 270 271 273 275 274 275 276 279 283 286 290 294 296 298 299 299 298 297 298 298 298 298 299 299 300 301 301
254 256 257 260 261 259 261 262 263 264 267 272 273 274 277 277 276 277 279 282 286 289 291 293 295 296 296 296 296 296 297 297 296 296 297 297 298 298
258 259 259 261 260 259 258 261 263 265 267 270 273 275 277 278 278 278 281 283 286 288 289 291 293 293 293 294 295 295 295 295 296 297 296 296 295 296
256 260 262 260 260 260 260 262 264 264 266 270 272 275 277 279 279 280 281 283 286 287 287 288 290 291 293 293 293 293 293 293 294 294 294 294 293 293
255 258 260 259 258 261 260 261 263 264 267 270 273 275 277 278 280 280 282 283 285 286 287 288 289 290 291 292 292 292 292 292 292 292 292 293 293 292
257 258 259 260 261 261 262 262 263 266 270 272 274 277 278 278 279 280 281 283 284 286 287 287 288 290 291 291 291 292 292 292 291 292 291 292 292 292
258 260 262 263 265 265 265 265 268 270 273 276 277 279 280 280 280 281 282 283 284 285 287 288 289 289 290 291 292 291 292 292 292 292 292 292 292 292
261 261 262 264 267 268 268 269 271 272 274 276 279 280 281 282 281 282 283 284 285 287 288 289 289 290 291 292 292 292 292 291 291 291 292 293 293 293
260 261 264 267 268 269 270 272 274 275 276 277 279 280 280 282 282 283 284 285 287 288 288 288 289 290 291 292 292 293 292 291 291 291 291 292 292 292
260 263 267 269 269 272 274 274 275 277 278 279 280 281 282 281 282 284 285 286 287 288 288 289 289 290 291 291 292 292 292 291 290 291 291 291 291 292
264 266 269 271 272 273 275 276 278 280 281 281 282 283 284 284 283 284 285 287 287 288 289 289 291 291 292 292 292 292 292 291 291 291 291 291 291 291
266 268 270 271 273 274 276 278 279 281 281 282 284 284 285 285 285 285 286 286 287 288 289 289 290 291 292 292 292 292 292 292 291 291 291 292 292 292
269 271 273 273 275 276 278 280 282 282 283 285 286 286 286 286 286 286 287 287 287 288 289 289 290 291 292 293 293 293 292 293 293 293 293 293 293 292
274 274 275 276 278 279 281 283 283 284 285 287 288 288 288 288 288 287 287 287 288 289 289 290 291 291 292 292 292 293 292 292 292 292 292 292 293 293
275 277 278 279 279 280 282 283 284 284 286 287 287 288 289 288 287 287 287 288 289 290 291 291 291 291 291 291 291 292 292 292 292 292 292 292 293 293
277 278 279 279 280 282 284 285 286 287 288 289 289 289 290 290 289 288 289 289 290 291 291 291 292 292 291 292 292 292 292 292 292 292 292 292 292 292
278 279 280 281 282 284 286 288 288 288 289 289 289 290 290 291 291 290 290 290 291 291 292 292 292 292 292 292 293 293 293 293 294 294 294 293 293 293
280 281 282 283 284 285 286 288 288 289 289 290 290 290 291 292 292 292 291 291 292 292 293 293 293 293 294 294 294 294 295 296 295 295 295 294 294 294
282 283 283 284 287 287 287 288 289 289 289 289 290 291 292 292 293 293 293 293 293 293 294 294 294 294 295 295 295 295 296 297 297 297 296 296 296 296
284 285 285 286 288 289 289 289 289 289 291 293 293 294 294 294 294 294 295 296 295 295 295 295 296 296 296 296 296 296 296 297 297 297 297 297 298 297
287 288 289 290 290 289 289 289 290 292 294 295 295 295 295 294 294 294 295 296 296 296 297 297 297 297 297 297 297 297 297 297 298 299 299 299 299 299
Height
5884 5885 5886 5886 5887 5888 5888 5889 5890 5890 5890 5890 5890 5890 5890 5890 5890 5890 5890 5890 5890 5889 5889 5888 5887 5886 5885 5884 5883 5882 5881 5880 5879 5877 5876 5874 5873 5871
5881 5882 5883 5884 5885 5885 5886 5886 5887 5887 5887 5888 5888 5888 5888 5888 5888 5888 5888 5887 5887 5887 5886 5885 5884 5883 5882 5881 5880 5879 5877 5876 5874 5873 5871 5870 5868 5866
5878 5879 5880 5881 5881 5882 5882 5883 5884 5884 5884 5885 5885 5885 5885 5885 5885 5885 5885 5884 5884 5883 5882 5881 5880 5879 5878 5877 5875 5874 5872 5871 5869 5868 5866 5864 5862 5861
5874 5875 5876 5877 5878 5878 5879 5880 5880 5881 5881 5882 5882 5882 5881 5882 5882 5881 5881 5881 5880 5879 5878 5877 5876 5875 5873 5872 5870 5868 5867 5865 5863 5862 5860 5858 5856 5854
5870 5871 5872 5873 5874 5874 5875 5876 5876 5877 5877 5878 5878 5878 5878 5877 5877 5877 5876 5876 5875 5874 5873 5872 5871 5869 5868 5866 5864 5863 5861 5859 5857 5855 5853 5851 5849 5847
5866 5867 5868 5868 5869 5870 5870 5871 5872 5872 5873 5873 5874 5873 5873 5872 5872 5872 5871 5870 5869 5868 5867 5866 5865 5863 5861 5859 5858 5856 5854 5852 5849 5847 5845 5843 5841 5839
5861 5862 5863 5864 5865 5865 5866 5867 5867 5868 5868 5868 5868 5868 5868 5867 5867 5866 5865 5864 5863 5862 5861 5859 5858 5856 5854 5852 5850 5848 5846 5843 5841 5839 5837 5834 5832 5830
5856 5857 5858 5859 5860 5860 5861 5861 5862 5862 5862 5862 5862 5862 5862 5861 5860 5859 5859 5858 5856 5855 5853 5852 5850 5848 5846 5844 5842 5839 5837 5834 5832 5830 5827 5824 5822 5819
5851 5852 5853 5854 5854 5855 5855 5856 5856 5856 5856 5856 5856 5855 5854 5854 5853 5852 5850 5850 5848 5846 5845 5843 5841 5839 5837 5835 5833 5830 5827 5824 5822 5819 5816 5814 5811 5808
5846 5847 5847 5848 5848 5849 5849 5849 5849 5849 5849 5849 5849 5847 5846 5845 5844 5843 5842 5841 5839 5837 5835 5834 5831 5829 5827 5825 5822 5819 5816 5814 5811 5808 5805 5802 5799 5796
5841 5842 5842 5842 5843 5843 5843 5843 5843 5842 5842 5841 5840 5839 5838 5837 5835 5834 5833 5831 5830 5828 5825 5823 5821 5819 5817 5814 5810 5808 5805 5802 5799 5796 5793 5790 5787 5783
5835 5836 5836 5837 5837 5836 5836 5836 5836 5835 5834 5833 5832 5831 5829 5827 5826 5825 5823 5821 5820 5818 5815 5812 5810 5807 5805 5802 5799 5796 5793 5790 5787 5784 5781 5777 5774 5770
5830 5830 5831 5831 5830 5830 5830 5829 5828 5827 5826 5825 5823 5822 5820 5818 5817 5815 5813 5811 5809 5807 5804 5801 5798 5795 5793 5791 5787 5784 5780 5777 5774 5771 5767 5764 5760 5757
5824 5824 5824 5824 5824 5823 5822 5821 5820 5819 5817 5816 5814 5813 5811 5809 5807 5805 5802 5800 5797 5795 5792 5789 5786 5783 5780 5777 5775 5771 5767 5764 5760 5757 5753 5750 5746 5742
5818 5818 5817 5817 5816 5815 5814 5813 5812 5810 5808 5807 5805 5803 5800 5798 5796 5794 5792 5789 5786 5783 5780 5777 5774 5770 5767 5764 5761 5758 5754 5751 5746 5743 5739 5735 5731 5727
5811 5810 5810 5809 5809 5807 5806 5804 5803 5801 5799 5797 5795 5792 5790 5787 5785 5782 5780 5777 5775 5772 5768 5765 5761 5758 5754 5751 5747 5744 5740 5736 5732 5728 5724 5720 5716 5712
5804 5803 5802 5801 5800 5799 5797 5796 5794 5792 5789 5787 5785 5782 5779 5776 5773 5771 5768 5765 5762 5759 5756 5753 5749 5745 5741 5737 5734 5730 5726 5722 5717 5713 5709 5705 5701 5696
5796 5795 5794 5793 5791 5790 5788 5786 5784 5782 5780 5777 5774 5771 5768 5764 5761 5758 5756 5753 5749 5746 5743 5739 5736 5732 5728 5723 5719 5715 5711 5707 5702 5697 5693 5689 5685 5680
5787 5786 5785 5784 5782 5781 5779 5777 5774 5772 5769 5766 5763 5760 5756 5753 5749 5746 5743 5740 5736 5733 5729 5725 5721 5717 5713 5710 5705 5699 5695 5691 5687 5682 5677 5673 5669 5665
5779 5777 5776 5774 5773 5771 5768 5766 5763 5761 5758 5755 5751 5748 5744 5741 5738 5734 5730 5727 5723 5719 5715 5711 5707 5702 5698 5695 5690 5685 5680 5675 5671 5667 5662 5657 5653 5648
5770 5768 5766 5764 5762 5760 5758 5755 5752 5749 5746 5743 5739 5736 5732 5729 5725 5721 5717 5713 5709 5705 5701 5697 5693 5688 5684 5679 5676 5671 5666 5661 5656 5651 5647 5642 5638 5633
5761 5759 5757 5754 5752 5750 5747 5744 5741 5737 5734 5731 5727 5723 5719 5716 5712 5708 5704 5700 5696 5692 5688 5683 5679 5674 5669 5665 5661 5657 5652 5648 5642 5637 5632 5627 5622 5617
5751 5749 5746 5744 5741 5739 5735 5732 5729 5725 5722 5718 5714 5710 5706 5703 5699 5695 5691 5687 5683 5678 5674 5670 5665 5660 5656 5651 5647 5642 5638 5634 5629 5624 5620 5613 5608 5603